Flag for Russia Weather past 2 weeks in Saint-Petersburg, Russia

Now
55 °F

Partly cloudy.


Feels Like: 53 °F
Forecast: 53 / 66 °F
Wind: 8 mph from West

Location: St. Petersburg

Current Time: Aug 23, 2014 at 2:24:18 AM

Latest Report: Aug 23, 2014 at 1:30 AM


Visibility: N/A

Pressure: 29.83 "Hg

Humidity: 82%

Dew point: 50 °F

Location of Saint-PetersburgLocation

Historic Weather in Saint-Petersburg — Graph

°F

Saint-Petersburg temperature yesterday

Maximum temperature yesterday: 64 °F (at 4:30 PM)
Minimum temperature yesterday: 54 °F (at 4:00 AM)
Average temperature yesterday: 57 °F

Past Weeks' High & Low Weather Summary

 TemperatureHumidityPressure
High86 °F (Aug 11, 3:00 PM)100% (Aug 15, 5:30 AM)29.95 "Hg (Aug 15, 5:30 AM)
Low50 °F (Aug 21, 3:00 AM)37% (Aug 10, 4:00 PM)29.53 "Hg (Aug 15, 2:00 AM)
Average64 °F76%29.75 "Hg
* Reported Midnight between Aug 7 and Aug 8 — Aug 23 12:30 AM, Saint-Petersburg, Weather by CustomWeather, © 2014

Note: Actual official high and low records may vary slightly from our data, if they occured in-between our weather recording intervals... More about our weather records

Advertising

Saint-Petersburg weather history for previous 24 hours

 ConditionsComfort  
Time TempWeatherWind HumidityBarometerVisibility
12:30 AM
Aug 23
55 °FSprinkles. Partly cloudy.3 mph88%29.83 "HgN/A
12:00 AM57 °FPartly cloudy.6 mph82%29.80 "HgN/A
11:30 PM
Aug 22
55 °FSprinkles. Partly cloudy.8 mph82%29.80 "HgN/A
11:00 PM55 °FSprinkles. Partly cloudy.3 mph88%29.80 "HgN/A
10:30 PM55 °FBroken clouds.3 mph82%29.80 "HgN/A
10:00 PM57 °FBroken clouds.6 mph77%29.80 "HgN/A
9:30 PM57 °FBroken clouds.3 mph77%29.80 "HgN/A
9:00 PM57 °FBroken clouds.1 mph82%29.80 "HgN/A
8:30 PM61 °FBroken clouds.1 mph77%29.80 "HgN/A
8:00 PM61 °FBroken clouds.10 mph68%29.77 "HgN/A
7:30 PM61 °FBroken clouds.10 mph72%29.77 "HgN/A
7:00 PM61 °FBroken clouds.8 mph72%29.77 "HgN/A
6:30 PM61 °FCloudy.6 mph77%29.77 "HgN/A
6:00 PM55 °FThundershowers. More clouds than sun.8 mph88%29.77 "HgN/A
5:30 PM57 °FMore clouds than sun.17 mph77%29.77 "HgN/A
5:00 PM63 °FMore clouds than sun.8 mph59%29.77 "HgN/A
4:30 PM64 °FBroken clouds.8 mph60%29.77 "HgN/A
4:00 PM63 °FBroken clouds.8 mph64%29.77 "HgN/A
3:30 PM63 °FBroken clouds.6 mph64%29.77 "HgN/A
3:00 PM59 °FMore clouds than sun.6 mph77%29.77 "HgN/A
2:30 PM57 °FMostly cloudy.6 mph82%29.77 "HgN/A
2:00 PM57 °FCloudy.10 mph77%29.77 "HgN/A
1:30 PM59 °FCloudy.13 mph72%29.77 "HgN/A
1:00 PM57 °FCloudy.8 mph88%29.77 "HgN/A
12:30 PM55 °FSprinkles. Mostly cloudy.6 mph88%29.77 "HgN/A
12:00 PM54 °FSprinkles. Mostly cloudy.8 mph88%29.77 "HgN/A
11:30 AM55 °FSprinkles. Mostly cloudy.8 mph88%29.74 "HgN/A
11:00 AM54 °FSprinkles. Mostly cloudy.3 mph94%29.74 "HgN/A
10:30 AM54 °FSprinkles. Cloudy.8 mph88%29.74 "HgN/A
10:00 AM55 °FCloudy.6 mph94%29.74 "HgN/A
9:30 AM55 °FMostly cloudy.3 mph94%29.74 "HgN/A
9:00 AM55 °FLight rain. Mostly cloudy.1 mph94%29.77 "HgN/A
8:30 AM54 °FLight rain. Mostly cloudy.3 mph100%29.77 "HgN/A
8:00 AM54 °FLight rain. Cloudy.1 mph100%29.77 "HgN/A
7:30 AM54 °FLight rain. Cloudy.No wind94%29.77 "HgN/A
7:00 AM54 °FLight rain. Overcast.No wind94%29.77 "HgN/A
6:30 AM54 °FSprinkles. Mostly cloudy.1 mph94%29.80 "HgN/A
6:00 AM54 °FSprinkles. Mostly cloudy.No wind94%29.80 "HgN/A
5:30 AM54 °FSprinkles. Mostly cloudy.1 mph94%29.80 "HgN/A
5:00 AM54 °FSprinkles. Mostly cloudy.3 mph94%29.80 "HgN/A
4:30 AM54 °FMostly cloudy.3 mph94%29.83 "HgN/A
4:00 AM54 °FMostly cloudy.3 mph94%29.83 "HgN/A
3:30 AM55 °FSprinkles. Mostly cloudy.3 mph88%29.83 "HgN/A
3:00 AM57 °FLight rain. Mostly cloudy.6 mph82%29.83 "HgN/A
2:30 AM55 °FMostly cloudy.3 mph88%29.83 "HgN/A
2:00 AM57 °FLight rain. Mostly cloudy.3 mph82%29.83 "HgN/A
Weather by CustomWeather, © 2014

See weather overviewHow to use our weather pages